User: anonymous
Location: North Smoke Tower Site
(30.5430°N, 82.3390°W)
Time: 15:54:32
(UTC-04:00)
Language:

Cosmos 1980 Rocket - Orbit

View from above orbital plane
View from above orbital plane
View from above satellite
View from above satellite

Ground track
Ground track

The orbit data is extracted from the following two-line orbital elements,

1 19650U 88102B   14205.31978701 -.00000114  00000-0 -33652-4 0  3375
2 19650 070.9994 081.4636 0014883 345.7787 134.4850 14.15668252326134
Epoch (UTC): 24 July 2014 07:40:29
Eccentricity: 0.0014883
inclination: 70.9994°
perigee height: 829 km
apogee height: 851 km
right ascension of ascending node: 81.4636°
argument of perigee: 345.7787°
revolutions per day: 14.15668252
mean anomaly at epoch: 134.4850°
orbit number at epoch: 32613

The dashed part of the orbit path shows where the satellite is in the earth's shadow,  

DLR